GEFSNE_500_meanwind_084.txt.gz
Wind_Speed
24 27 31 34 36 37 38 39 40 41 41 41 41 41 41 41 41 40 39 38 37 37 37 35 34 32 31 31 30 28 27 26 25 24 23 23 22 22
23 25 28 31 35 37 38 39 40 40 41 42 42 42 42 42 42 42 41 40 39 39 38 37 37 36 34 33 32 31 30 28 27 26 25 25 24 23
21 24 27 29 31 35 37 38 39 40 39 42 43 42 43 43 43 43 42 41 40 40 40 39 39 38 37 36 35 34 33 31 30 29 28 27 26 25
17 20 24 27 29 32 35 36 38 39 40 41 42 42 42 42 43 44 44 43 42 41 41 41 40 39 39 38 37 36 34 33 32 31 29 28 28 27
13 16 19 23 27 29 31 34 36 37 38 40 41 42 42 42 42 43 44 43 42 42 42 41 41 40 40 40 39 37 36 35 33 32 31 30 29 28
12 13 15 19 23 26 28 31 33 35 37 38 40 41 41 43 42 43 43 43 43 42 42 41 42 41 40 40 39 38 37 36 35 34 33 32 31 30
11 11 12 15 18 22 25 27 30 32 34 36 38 40 41 41 42 42 43 43 43 43 42 42 42 42 42 41 40 39 38 38 37 36 35 34 33 32
10 9 10 12 15 18 22 25 27 29 31 33 35 38 39 39 40 42 42 42 42 43 43 42 44 44 43 43 41 40 39 39 38 37 36 35 34 33
10 9 9 10 12 14 18 22 25 27 29 31 32 35 37 39 39 40 41 42 42 43 44 44 44 44 44 44 43 42 41 41 39 39 38 37 36 35
11 10 9 9 11 13 16 19 22 25 27 29 30 33 35 36 37 38 39 40 41 42 43 42 42 42 42 43 43 43 42 41 40 40 39 38 37 36
12 11 10 10 10 12 13 16 19 23 25 27 29 30 33 34 36 37 39 40 40 41 43 43 42 43 43 43 43 42 41 41 40 39 38 38 38 37
13 12 11 11 11 11 12 14 16 19 22 24 27 28 31 33 35 36 38 39 40 40 40 41 42 43 43 43 44 43 43 42 40 39 39 39 39 38
15 14 13 12 12 12 12 13 15 17 19 22 24 26 28 30 33 35 37 38 38 39 39 40 41 42 43 43 44 43 43 42 41 40 40 41 40 39
16 15 14 13 13 13 13 13 14 16 18 19 22 25 27 28 30 32 34 36 37 37 38 39 40 41 41 42 43 44 44 43 42 41 41 40 40 39
17 16 16 15 15 14 14 14 14 15 17 18 20 22 24 26 28 30 31 32 33 35 37 37 38 39 40 41 41 43 43 43 42 40 40 39 38 38
19 18 17 17 16 16 16 16 16 16 17 18 19 21 23 24 26 28 30 30 31 32 34 35 37 38 38 39 40 41 42 42 42 41 40 39 39 38
21 20 20 19 19 18 18 18 18 18 18 18 20 21 22 23 24 26 29 30 31 32 33 34 35 36 37 37 37 38 39 40 41 41 39 38 37 38
23 23 22 22 21 21 21 21 21 21 20 20 21 22 23 24 25 26 28 29 30 32 32 34 35 36 37 38 38 38 38 38 38 38 38 38 37 37
26 25 25 25 24 24 24 23 23 23 23 23 23 24 24 25 26 27 28 28 29 31 32 33 34 36 36 36 37 38 38 38 37 37 37 38 38 37
28 28 28 28 27 27 26 26 26 26 26 25 25 25 25 26 26 27 28 28 29 29 30 32 33 34 35 35 36 37 37 37 37 37 37 37 37 36
31 31 31 31 31 30 30 30 29 29 28 28 28 28 27 28 28 28 28 29 29 30 31 32 32 33 33 34 35 36 36 36 36 37 37 37 36 35
35 35 35 35 34 34 34 33 33 33 32 32 31 31 30 30 30 30 30 30 30 31 31 31 32 33 33 33 33 34 35 36 36 36 36 35 34 34
38 38 38 38 38 38 38 38 37 37 36 35 34 34 33 33 33 33 32 32 31 31 32 32 32 33 33 33 34 35 35 35 35 35 36 35 34 35

GEFSNE_500_meanwind_090.txt.gz
Wind_Speed
15 18 21 24 27 29 31 34 36 37 38 40 42 42 42 41 42 41 40 39 39 38 36 35 35 34 33 32 31 29 28 27 26 26 24 24 23 22
15 17 19 21 24 28 30 32 34 37 39 40 42 42 42 42 42 42 42 42 41 40 39 38 37 36 35 35 34 32 31 31 30 29 28 27 26 25
13 15 17 19 22 25 28 30 33 35 37 39 40 42 43 43 44 43 43 43 42 42 41 40 39 38 38 38 37 36 35 33 33 32 31 30 29 28
11 12 14 16 18 22 25 27 30 33 35 37 39 40 41 43 44 44 45 44 43 44 44 43 42 41 40 40 40 39 38 37 36 35 34 33 32 32
10 10 11 13 15 17 21 24 27 29 32 35 36 38 39 40 41 43 44 45 45 44 44 43 43 42 42 42 42 42 41 40 39 38 37 36 35 34
9 9 10 11 12 14 16 20 23 26 30 33 35 36 36 38 40 40 41 42 43 44 45 44 44 44 43 43 44 44 43 42 41 40 40 39 37 36
9 9 9 10 10 12 14 16 19 22 26 30 33 34 36 37 38 39 39 41 42 42 43 44 45 45 45 45 45 45 44 44 43 42 41 41 40 38
10 9 8 9 10 11 13 14 16 19 22 25 29 32 34 36 38 39 39 40 42 42 43 43 43 44 44 45 44 44 45 45 45 44 44 43 42 40
11 10 9 9 10 11 12 13 15 17 20 22 25 28 31 33 36 37 38 39 40 42 43 43 44 43 44 45 45 44 45 46 47 46 46 45 43 42
12 11 10 10 10 10 11 13 14 16 17 19 21 24 28 30 33 35 36 37 39 40 42 42 42 42 42 44 45 46 46 46 46 46 46 46 45 44
13 13 12 11 11 11 11 13 14 15 16 18 20 22 24 27 29 32 34 35 37 38 40 40 41 41 42 43 44 46 46 46 46 47 47 46 46 46
14 13 13 13 12 12 12 12 13 15 16 17 19 21 23 25 27 29 31 34 35 36 38 40 41 42 41 42 43 44 45 45 46 47 48 48 48 48
15 14 14 13 13 13 13 13 13 14 15 17 18 20 22 23 25 27 30 31 33 34 36 38 39 40 40 40 42 43 44 45 46 46 46 47 47 47
16 15 15 15 14 15 15 15 15 15 16 17 18 19 21 23 24 26 28 30 31 32 34 36 37 38 39 39 39 41 43 44 45 45 45 45 46 47
17 17 16 16 16 17 17 16 16 17 17 18 18 19 21 23 24 26 28 30 30 31 33 35 36 37 38 38 38 39 40 42 43 44 44 43 44 45
19 19 18 18 18 19 19 19 19 19 19 20 20 21 22 23 24 26 28 29 30 31 33 34 36 36 36 37 38 38 38 38 40 42 42 43 43 44
22 21 21 21 20 21 21 21 22 22 22 23 23 24 24 25 25 26 28 29 30 31 33 34 35 36 37 37 37 37 38 38 39 41 42 42 42 44
24 24 24 24 24 24 24 25 25 25 25 25 26 26 27 27 27 27 28 29 30 32 33 34 35 36 36 37 37 37 37 38 39 40 40 41 42 42
26 26 26 27 27 27 27 27 28 28 28 28 28 28 29 30 30 30 29 30 31 32 33 35 36 37 37 36 36 37 38 38 39 40 40 41 42 42
28 28 28 29 29 29 30 30 30 31 31 32 32 32 32 32 32 33 33 32 32 33 34 35 37 37 37 37 37 37 38 38 39 40 40 40 40 40
31 31 31 31 32 32 33 33 33 33 33 34 34 35 35 35 35 36 36 36 36 36 36 37 38 39 39 38 38 37 38 39 39 39 40 41 42 41
33 34 34 34 35 35 35 36 36 36 36 37 37 37 38 38 39 39 39 39 39 39 39 39 39 40 40 40 39 38 38 39 39 40 40 41 41 41
36 37 37 38 38 39 39 39 39 39 40 40 40 41 41 41 41 41 42 42 42 42 42 42 42 42 41 41 40 39 39 39 39 40 40 40 41 41

GEFSNE_500_meanwind_096.txt.gz
Wind_Speed
11 13 15 18 21 23 25 27 28 30 31 33 34 37 38 38 39 40 39 38 38 37 37 36 35 34 33 32 31 30 29 29 28 27 26 26 25 24
10 13 15 17 19 21 24 26 28 29 31 33 35 36 37 39 39 40 40 40 40 40 39 39 38 37 36 36 34 34 33 32 31 30 29 29 28 27
9 11 14 16 17 19 21 24 26 28 30 32 34 35 37 38 39 40 41 42 42 41 41 41 40 40 39 38 37 37 36 35 35 34 33 32 31 30
10 11 12 14 16 17 19 22 24 26 27 30 32 34 36 37 39 40 41 42 42 42 42 42 43 42 42 41 40 39 38 38 37 36 36 35 34 33
10 10 10 12 13 15 17 19 21 23 25 28 30 32 34 35 37 39 40 41 42 42 42 42 43 44 44 42 42 42 41 41 40 39 39 38 38 37
9 9 9 10 11 13 15 16 18 19 21 24 27 30 32 33 34 36 38 40 41 42 43 43 43 44 44 44 44 43 43 43 42 42 41 41 41 40
9 8 8 8 9 11 13 14 15 16 18 20 22 25 29 31 32 33 35 36 38 39 40 42 43 44 44 44 44 44 44 44 44 43 42 42 42 42
10 9 8 8 9 10 11 13 14 16 17 18 20 22 25 28 30 31 33 34 35 37 39 40 42 43 45 45 45 45 45 45 44 44 44 43 43 43
10 10 8 9 10 10 11 13 15 16 17 18 20 21 23 26 29 31 32 33 34 36 37 38 40 41 43 45 45 46 46 46 47 46 46 45 44 44
11 10 10 9 9 10 11 12 14 15 17 17 18 20 22 24 26 29 31 33 35 37 38 38 39 40 41 43 45 46 46 47 47 47 47 47 46 46
12 12 11 11 11 11 12 12 14 15 17 17 18 18 20 22 25 27 29 31 32 34 37 38 39 40 41 42 44 45 46 47 48 49 50 50 48 47
14 13 13 12 12 13 13 13 14 15 17 17 18 19 19 21 23 25 27 29 31 33 36 38 39 40 40 41 43 44 46 47 48 48 49 49 50 49
15 15 14 14 14 14 14 15 15 16 17 18 19 20 20 21 22 24 25 26 29 31 33 35 37 38 39 40 41 42 42 44 46 47 47 48 49 49
17 16 16 15 16 16 16 16 17 17 18 19 19 20 21 22 23 24 25 26 27 29 31 33 34 36 38 39 40 42 42 43 43 45 45 46 48 48
18 17 17 17 17 17 18 18 19 19 19 20 21 22 23 23 24 25 26 27 28 29 31 33 34 35 36 38 39 40 41 43 43 43 44 44 45 46
19 19 19 19 20 20 20 20 21 22 22 22 23 24 25 25 26 27 28 29 30 31 33 34 34 35 36 38 39 40 41 42 44 44 43 43 43 44
21 21 21 21 22 22 22 23 24 24 24 25 25 26 26 27 28 28 29 30 31 32 33 35 36 37 37 38 39 40 41 41 42 43 43 43 42 42
23 23 23 23 24 24 24 25 26 26 26 27 28 28 29 29 30 31 32 32 33 34 35 36 37 38 38 39 39 40 40 42 43 44 44 44 44 44
25 25 26 26 26 26 27 27 27 28 29 30 30 31 32 32 33 34 34 35 36 36 37 38 39 40 40 39 40 41 41 42 42 43 44 45 44 44
28 28 28 28 28 29 29 29 30 31 32 32 33 34 34 35 36 36 37 38 38 39 40 40 41 42 42 42 42 42 43 43 43 43 44 45 44 44
30 30 30 30 31 31 32 32 33 33 34 35 35 36 36 37 38 39 40 40 41 41 41 41 42 43 44 44 44 43 43 45 45 45 44 45 44 43
31 32 32 33 33 34 34 35 35 36 36 36 37 38 39 40 41 42 42 43 43 43 43 43 44 44 45 45 45 45 44 45 46 46 46 46 45 44
33 34 34 35 36 36 37 37 37 38 38 39 40 41 42 43 43 44 44 45 45 46 46 46 46 47 48 48 48 47 47 46 47 47 47 47 47 46

GEFSNE_500_meanwind_102.txt.gz
Wind_Speed
6 7 8 10 12 14 17 18 20 22 23 24 25 27 28 28 30 31 32 32 31 32 33 33 33 32 32 32 31 30 30 29 29 27 26 25 24 24
7 8 9 10 11 13 16 17 19 20 21 23 25 27 28 29 30 32 33 33 33 33 33 34 35 35 34 34 34 33 33 32 31 30 29 28 27 26
8 8 9 10 11 13 15 17 18 19 21 22 24 26 27 28 30 32 33 34 35 35 36 35 36 36 36 36 36 36 35 34 33 33 32 31 31 30
8 8 9 10 11 13 15 16 18 19 20 21 23 24 25 27 29 31 33 34 35 35 36 36 37 38 38 38 38 38 37 37 36 36 35 34 34 33
9 10 10 11 11 12 15 17 18 19 19 20 21 23 24 25 26 28 31 33 34 35 36 37 37 38 39 39 39 39 39 39 39 38 38 37 37 36
10 10 10 11 11 11 13 15 17 18 18 19 20 21 22 23 24 26 28 30 32 33 34 35 36 38 39 40 40 40 40 40 41 41 40 40 40 39
11 11 11 10 11 11 12 13 15 16 17 18 19 21 22 23 24 25 26 27 30 32 33 34 35 37 38 40 40 40 41 41 42 42 42 41 41 41
12 11 11 11 11 11 11 12 13 14 16 17 18 20 22 22 23 24 25 27 27 29 31 33 35 36 37 38 39 40 40 42 42 43 43 43 42 42
12 12 11 11 11 11 11 12 12 14 15 16 17 18 19 20 22 23 24 25 26 28 30 30 33 34 35 36 38 38 39 40 41 43 44 43 43 43
13 12 12 11 11 11 11 11 12 12 13 15 16 17 17 18 20 21 22 24 25 27 28 30 31 32 34 35 36 37 39 40 41 42 44 44 44 44
14 13 13 12 12 11 12 12 13 13 14 15 16 18 18 18 19 21 22 23 24 25 27 29 31 32 33 34 36 37 38 39 40 41 42 43 44 45
15 14 14 13 13 13 13 13 14 14 14 15 16 17 18 19 20 21 22 23 24 25 27 28 29 31 32 33 34 35 37 38 39 40 41 42 43 44
16 16 15 15 14 14 14 15 15 15 15 16 17 17 18 19 20 21 22 23 24 25 26 27 29 31 32 33 34 35 36 38 39 39 40 41 42 42
18 17 16 16 16 15 15 16 16 16 16 17 18 18 20 21 21 22 22 23 25 26 27 28 29 30 32 33 34 35 36 37 38 40 41 41 42 43
19 18 18 17 17 17 17 17 18 18 18 18 19 20 21 21 22 23 24 25 26 27 29 29 30 31 32 33 34 35 36 37 39 40 41 41 42 43
20 19 19 19 18 18 19 19 19 19 20 20 21 22 23 23 24 24 25 26 27 28 30 31 32 33 34 35 35 36 37 38 39 40 41 41 41 42
20 20 20 20 20 20 20 21 21 22 22 22 23 23 24 25 26 26 27 27 28 29 31 32 34 34 35 36 36 37 39 40 40 40 41 42 43 44
22 22 22 22 22 22 22 22 23 24 24 25 25 26 27 27 28 29 30 30 31 32 33 34 36 37 38 38 39 40 41 41 42 42 43 42 42 43
24 24 24 24 24 24 24 24 25 25 26 27 27 28 29 30 31 31 32 33 34 34 35 36 37 38 39 39 40 42 43 43 44 44 45 45 44 44
26 26 26 26 26 26 26 27 27 28 28 29 29 30 31 32 33 34 34 35 36 37 37 38 40 40 41 41 41 42 44 44 45 45 46 46 46 45
29 29 28 28 28 28 28 29 29 29 30 30 31 32 33 34 35 35 36 36 37 38 39 40 41 42 43 43 42 42 43 45 45 45 46 47 47 47
31 31 31 31 30 30 31 31 31 31 32 32 33 34 35 35 36 37 38 38 39 40 41 42 43 43 44 44 44 43 43 45 46 47 48 48 48 47
32 33 33 32 33 33 33 33 33 33 34 34 35 36 36 37 38 38 39 40 41 42 43 43 44 45 46 46 46 46 46 46 47 47 48 49 49 49

GEFSNE_500_meanwind_108.txt.gz
Wind_Speed
4 5 7 8 11 12 14 16 19 21 22 23 25 26 26 27 28 29 29 31 30 30 31 31 31 31 31 31 31 30 30 30 29 29 29 29 28 27
3 4 6 7 9 11 13 15 17 19 21 22 24 25 26 28 28 29 30 30 31 31 31 32 33 33 32 32 32 32 32 32 32 31 31 31 30 29
4 4 5 7 8 11 13 14 16 18 20 21 22 24 26 26 27 28 29 30 30 31 32 32 33 33 34 34 34 34 34 34 34 34 34 34 33 33
5 5 5 6 8 10 12 14 16 17 19 20 21 23 25 26 27 28 28 28 30 30 32 32 33 34 35 36 37 37 36 35 36 36 36 36 35 35
6 6 6 6 8 9 11 13 15 17 18 20 20 21 23 24 26 27 29 29 29 30 31 32 34 35 36 37 38 38 38 38 37 37 37 38 37 37
7 7 7 7 8 9 10 12 14 16 17 19 20 21 22 23 24 25 27 29 29 29 30 31 32 34 36 37 38 39 39 39 39 39 39 39 39 39
8 8 8 7 8 8 10 12 13 15 16 17 19 20 21 22 23 23 24 25 26 27 29 30 31 33 35 36 38 39 39 39 40 40 40 41 41 42
9 8 8 8 8 8 9 10 12 13 14 16 17 18 19 20 22 23 24 24 26 26 27 28 30 32 34 36 37 38 39 40 40 40 40 41 42 44
10 10 9 9 8 9 9 9 11 12 13 14 15 16 18 19 20 22 23 24 25 26 28 28 30 31 32 34 36 37 38 39 40 41 41 42 42 43
11 11 10 10 10 10 10 10 11 11 13 14 15 16 16 17 18 20 21 22 24 25 27 28 29 30 32 33 35 36 38 39 40 41 41 41 41 42
11 11 11 11 11 11 11 11 12 12 13 15 15 15 16 17 18 20 21 22 24 25 26 27 28 29 31 33 34 36 37 38 39 40 40 41 40 41
12 12 11 11 12 11 12 12 12 13 14 15 16 17 17 18 19 20 21 22 23 24 25 26 27 28 30 32 34 35 35 37 38 39 40 41 42 42
12 12 12 12 12 12 12 13 13 14 15 15 16 17 18 19 20 21 22 23 24 25 25 26 27 28 29 31 33 34 35 36 37 39 40 41 42 43
14 13 13 12 12 12 13 13 14 15 16 16 17 18 19 20 21 22 23 24 24 25 26 27 28 29 30 31 33 34 36 37 38 40 40 41 42 43
15 15 14 14 14 14 14 15 15 16 16 17 18 19 20 21 22 23 24 24 25 27 28 28 29 30 31 32 33 34 36 37 38 40 41 42 43 44
17 16 16 15 15 15 15 16 16 17 17 18 19 20 21 22 23 24 24 26 27 28 29 30 30 31 32 32 34 35 36 37 39 40 41 43 44 45
19 18 17 17 17 17 17 17 17 18 18 19 20 21 22 23 24 25 26 27 28 29 30 31 32 33 35 36 36 37 38 38 40 41 42 43 44 45
20 20 19 19 19 19 19 19 19 20 20 21 22 23 24 25 26 27 28 29 30 31 32 33 35 35 36 36 37 38 39 40 41 42 43 44 45 46
22 22 21 21 21 21 21 21 21 22 23 23 24 25 25 26 27 28 29 30 31 32 33 35 36 37 38 38 38 39 40 41 42 43 44 45 45 46
24 24 23 23 23 23 23 23 23 24 24 25 25 26 27 28 29 30 31 32 33 34 35 36 37 38 39 39 39 40 42 43 44 44 45 46 47 47
26 25 25 25 25 25 25 25 25 26 26 26 27 28 29 30 31 32 33 34 35 35 36 37 38 39 39 39 40 41 42 44 45 46 46 47 48 48
27 27 27 27 26 27 27 27 27 28 28 28 29 30 30 31 32 33 34 35 35 36 37 38 39 40 40 41 41 42 43 45 46 47 48 48 49 49
28 28 28 28 28 28 28 29 30 30 30 30 31 32 32 33 33 34 35 35 36 37 38 38 39 41 41 42 43 44 45 45 46 47 48 50 50 50

GEFSNE_500_meanwind_114.txt.gz
Wind_Speed
4 5 6 8 8 10 12 14 15 17 18 20 21 22 24 25 26 27 27 28 28 28 27 27 27 28 28 29 29 28 28 27 27 26 26 27 27 26
4 4 6 7 8 9 10 12 14 16 17 18 20 22 24 25 26 27 28 28 28 28 28 28 29 29 29 29 29 30 30 30 30 29 29 28 28 29
4 5 6 7 8 9 10 11 13 15 17 18 19 20 22 24 26 27 28 29 30 30 30 29 29 30 30 30 30 30 31 32 32 32 32 31 30 30
5 5 6 6 7 9 10 11 12 15 17 18 19 20 20 22 24 26 26 27 29 29 29 30 30 30 30 31 31 32 32 33 34 34 34 34 33 33
5 5 6 6 7 9 10 11 12 14 16 18 19 20 21 21 23 25 26 26 28 29 29 30 30 30 31 31 32 32 33 34 35 36 36 36 36 35
6 6 6 6 7 8 10 10 11 13 15 17 18 20 21 21 22 23 25 26 27 28 29 30 30 32 32 32 32 32 33 35 35 36 36 37 37 37
7 7 7 7 7 8 9 10 11 12 14 15 17 18 20 22 22 23 24 26 26 27 28 29 29 30 30 31 31 32 32 34 35 36 36 37 38 39
8 8 8 8 8 8 9 9 10 11 13 15 16 18 19 21 22 22 23 24 25 26 26 27 28 29 29 30 31 31 32 33 34 36 37 38 38 39
10 9 9 9 8 9 9 10 11 11 12 14 15 16 18 19 21 22 22 23 24 25 26 27 28 29 29 30 30 31 32 33 34 34 36 38 39 40
11 11 10 10 9 9 10 11 11 12 13 14 15 15 16 17 19 21 22 23 24 24 25 27 28 28 29 29 30 31 32 33 33 34 36 38 39 40
13 12 12 12 11 11 11 11 12 12 13 14 15 16 16 17 18 19 21 22 23 24 25 26 27 28 29 29 30 31 32 32 33 34 35 36 38 40
15 14 14 13 13 12 12 12 12 13 13 14 15 16 16 17 18 19 21 22 23 24 25 25 27 28 28 29 30 32 32 33 33 34 35 37 39 40
17 16 15 15 14 14 14 14 14 14 14 15 15 16 17 18 19 20 21 22 23 24 25 25 26 27 27 29 30 32 33 33 35 36 37 38 40 41
20 18 17 17 16 16 16 15 15 15 15 15 16 16 16 18 19 20 21 22 22 23 24 25 26 27 28 29 30 31 33 34 35 36 37 38 40 41
22 21 20 19 19 18 17 17 16 16 16 16 16 16 16 17 19 19 21 22 23 24 25 26 27 28 29 30 31 32 33 34 35 36 37 38 40 40
25 24 23 22 21 20 20 19 18 18 18 17 17 17 18 18 19 20 22 23 24 25 26 27 28 29 30 31 32 33 34 35 36 37 38 38 39 40
27 26 25 24 23 22 22 21 20 20 20 20 19 19 19 19 20 21 22 23 24 25 26 27 28 29 30 31 32 33 34 35 36 37 39 40 41 42
30 29 27 26 25 25 24 23 23 22 22 21 21 21 21 21 22 22 23 24 25 26 27 28 29 30 31 32 33 34 35 36 37 38 39 40 41 42
31 30 29 28 27 26 25 25 24 24 24 23 23 23 23 24 24 24 25 26 27 27 28 29 30 32 32 32 34 35 36 37 38 39 39 40 40 41
33 32 31 30 29 28 27 27 26 26 25 25 25 25 25 26 26 26 27 28 29 29 30 31 32 33 34 35 35 36 38 38 39 40 40 41 41 42
35 34 33 32 31 30 29 29 28 27 27 26 26 27 27 27 27 28 29 29 30 31 32 32 33 34 35 36 37 38 39 40 41 41 42 43 43 44
36 35 34 33 32 31 30 30 29 29 28 28 28 28 28 28 29 29 30 31 31 32 33 34 35 36 37 38 38 39 40 41 42 42 43 44 44 44
38 37 35 34 33 33 32 31 30 30 29 29 29 29 29 29 30 30 31 32 32 33 34 35 36 37 38 39 39 40 40 40 41 42 43 44 45 45

GEFSNE_500_meanwind_120.txt.gz
Wind_Speed
7 8 8 10 11 12 13 14 16 17 19 20 22 23 25 26 27 28 28 29 29 29 29 29 28 28 29 28 28 28 28 27 27 27 26 26 26 26
8 8 9 10 11 12 12 13 14 16 17 19 21 22 23 24 25 26 27 29 30 30 30 29 29 29 28 28 28 28 29 29 29 30 29 28 28 27
8 8 8 9 10 11 12 13 13 15 16 18 19 21 23 23 24 25 26 28 28 29 29 30 29 29 29 28 29 29 29 29 29 30 30 30 30 29
8 8 8 8 10 10 11 13 13 14 16 17 18 20 22 23 24 24 25 27 28 29 30 31 30 30 30 30 29 29 29 29 30 30 30 31 31 31
10 9 9 9 10 10 12 13 14 14 16 18 18 19 21 23 24 24 25 26 27 29 30 31 31 31 32 32 31 31 30 30 30 31 30 31 31 32
12 11 11 11 11 11 12 13 14 14 16 17 18 19 20 21 23 24 25 26 27 28 29 30 31 31 32 32 33 32 31 31 31 31 31 31 32 33
14 13 13 13 12 12 13 14 14 15 16 17 17 19 19 20 21 23 24 24 25 27 28 30 31 31 31 32 32 32 33 33 32 32 32 32 32 33
16 15 15 14 14 14 14 14 14 15 17 18 19 20 21 21 21 21 22 23 24 26 27 28 30 31 31 32 32 31 31 32 32 33 33 33 33 33
18 18 17 17 16 15 15 15 15 16 17 18 19 19 20 21 21 21 22 22 24 25 26 27 28 29 30 31 31 32 32 31 31 32 32 33 33 33
21 20 19 19 18 18 17 17 17 16 16 17 18 20 20 20 21 21 21 22 22 23 24 26 28 29 30 31 31 32 33 33 32 32 33 34 34 34
24 22 22 21 21 20 19 19 18 18 18 17 18 18 19 20 20 20 21 21 22 23 24 25 27 29 30 31 31 32 33 33 33 33 33 34 34 34
26 25 23 23 22 22 21 20 20 19 19 19 18 18 18 19 19 20 20 21 22 23 24 25 26 28 29 30 31 31 32 32 32 33 33 34 35 35
28 27 26 25 24 24 23 22 21 20 20 19 19 19 19 19 19 20 21 21 22 23 24 25 26 27 28 28 30 31 31 32 33 33 34 35 35 36
30 30 29 28 27 26 25 24 23 22 22 21 21 20 20 20 20 20 21 21 22 22 22 23 24 25 26 27 29 30 31 32 33 33 34 35 36 37
32 31 31 30 29 28 28 27 26 25 24 23 23 23 22 21 21 21 22 22 22 22 23 23 23 24 25 27 28 29 30 31 32 33 34 35 36 37
34 33 33 32 31 30 29 28 27 27 26 25 25 24 23 23 22 22 22 22 22 23 23 23 24 24 25 26 27 28 29 31 32 33 34 35 37 38
37 36 35 33 32 32 31 30 28 28 28 27 27 26 25 24 24 23 23 23 23 23 24 25 25 25 26 26 28 28 29 30 31 32 33 35 36 37
39 37 36 35 34 33 32 31 30 29 29 29 28 27 27 26 26 26 25 25 25 25 25 26 26 26 27 27 28 29 29 30 31 32 34 35 36 38
41 39 38 37 35 34 34 32 32 31 30 30 29 28 28 28 27 27 27 27 27 27 27 27 27 27 27 28 29 30 30 31 32 33 34 36 36 38
42 41 40 38 37 36 35 34 33 32 31 31 30 29 28 28 28 28 28 27 28 28 28 28 28 28 28 29 30 30 31 32 33 34 35 36 37 38
44 42 41 40 38 37 36 35 34 33 32 32 31 30 29 29 29 28 28 28 28 28 28 29 29 29 29 30 30 31 32 34 35 36 37 37 38 39
45 44 43 41 39 38 37 36 35 34 33 32 31 30 30 30 29 29 28 28 29 29 29 29 30 30 31 31 32 32 33 34 35 36 37 38 39 39
46 46 44 43 41 40 39 38 36 35 34 32 31 31 30 30 29 29 29 29 29 29 29 29 30 31 32 32 33 33 34 35 35 36 37 38 38 39

GEFSNE_500_meanwind_126.txt.gz
Wind_Speed
12 12 12 11 10 10 11 12 13 14 15 16 17 18 20 22 22 23 24 26 26 26 27 27 27 27 27 27 28 27 26 27 26 26 26 25 24 23
13 12 12 11 10 11 11 13 14 14 15 16 16 17 19 21 21 22 23 24 26 26 26 26 27 26 26 26 26 27 27 27 28 28 27 28 27 26
14 13 12 12 12 12 12 13 14 15 15 16 17 17 18 19 20 22 23 23 25 26 27 27 27 27 27 27 26 27 28 28 28 28 28 28 28 27
15 14 14 13 13 13 13 13 14 15 15 16 17 17 17 19 20 21 22 23 24 25 26 27 26 27 27 28 28 27 27 28 28 29 29 29 28 29
17 16 15 15 15 15 15 14 15 15 15 16 17 18 18 18 20 21 22 23 24 25 25 26 26 27 28 28 28 28 28 29 29 29 29 29 29 29
19 18 17 17 17 16 16 16 16 16 17 17 17 18 19 19 19 21 22 22 23 25 25 26 26 27 28 29 29 30 30 29 29 29 29 29 29 29
21 20 20 19 19 18 18 18 18 18 19 18 18 19 20 20 20 21 22 23 23 24 25 26 26 27 28 29 29 29 30 30 30 30 30 30 30 30
25 23 22 22 21 21 21 20 20 20 20 20 19 19 20 21 22 21 21 22 23 24 25 26 27 27 27 28 29 29 29 30 30 31 31 31 31 31
28 27 25 24 24 23 23 22 22 22 22 22 21 21 21 21 23 23 22 22 23 24 24 25 26 27 27 28 28 29 29 30 30 30 30 31 31 31
31 30 29 27 26 26 26 25 24 24 23 23 23 22 22 22 23 23 23 23 24 24 24 24 25 26 27 28 28 29 29 29 30 30 31 31 31 31
33 32 32 31 29 28 28 27 27 26 25 25 24 24 23 23 24 24 24 23 24 24 24 24 24 24 25 26 27 27 28 28 29 29 30 31 31 31
35 34 34 33 32 32 31 30 29 28 28 27 26 26 25 24 24 24 24 24 24 24 25 25 24 24 24 25 26 26 26 27 28 29 30 30 31 31
36 36 35 34 34 34 33 32 31 30 29 29 28 28 27 26 25 24 25 25 24 24 24 24 24 25 24 24 25 25 26 27 28 29 30 30 30 31
38 37 36 36 36 35 35 34 33 32 31 30 30 29 28 27 27 26 25 25 25 25 25 25 24 24 24 24 25 25 26 27 28 28 28 29 30 30
39 38 37 37 37 37 36 35 35 34 33 32 31 30 29 29 28 28 27 26 26 25 25 25 25 25 25 25 25 26 26 27 27 27 28 29 29 30
40 39 39 38 39 38 38 37 36 35 34 33 33 32 31 31 30 29 28 28 28 27 26 26 26 25 25 25 25 25 26 26 27 27 27 28 29 30
41 41 40 39 39 39 37 37 37 36 35 34 33 33 33 32 31 30 30 29 29 28 27 26 26 25 25 25 25 25 25 26 26 27 28 28 29 30
42 41 41 41 40 40 39 38 38 38 36 36 35 34 33 33 32 31 30 29 29 28 28 27 27 26 26 26 26 26 26 26 27 27 27 28 29 30
42 41 41 42 41 41 41 39 39 38 38 37 36 35 34 33 33 32 31 30 30 29 29 29 28 28 27 27 27 27 27 27 27 27 28 28 29 30
41 41 42 42 43 43 42 41 39 39 39 38 38 37 36 35 34 33 33 32 31 31 30 30 30 29 29 29 29 29 28 28 29 29 29 29 30 31
42 41 41 42 43 43 43 42 41 40 40 40 39 38 38 37 36 35 34 33 32 32 31 31 31 31 31 30 30 30 29 30 30 30 30 30 30 31
43 41 40 41 43 43 44 43 42 41 40 40 40 40 38 37 37 36 35 34 33 32 31 31 32 31 31 30 30 30 30 30 30 30 30 31 31 30
44 43 41 41 43 43 44 44 42 42 41 41 41 40 39 38 38 37 36 35 34 32 32 32 32 32 31 31 31 30 30 31 30 30 30 30 31 31

GEFSNE_500_meanwind_132.txt.gz
Wind_Speed
15 13 12 11 11 10 10 11 12 13 14 16 17 18 20 21 22 23 24 25 26 26 27 27 28 28 28 28 29 29 29 28 28 28 28 28 27 26
16 15 14 13 12 12 12 12 13 14 15 16 17 19 20 21 22 23 24 25 27 28 28 29 29 29 29 29 30 30 30 30 30 29 29 29 28 28
17 16 16 15 14 14 14 14 14 15 16 17 18 19 20 21 22 23 24 25 27 28 29 30 30 30 30 30 31 31 31 31 30 30 31 30 30 29
19 19 18 17 17 16 16 16 16 17 18 19 20 20 21 22 23 23 24 25 27 28 29 30 30 30 31 31 31 31 31 32 31 32 31 31 31 31
21 21 20 20 19 19 19 19 18 19 19 20 21 21 21 22 23 24 24 25 26 27 28 29 30 30 31 31 31 31 31 32 32 32 32 32 32 32
24 23 22 22 21 21 21 21 21 21 21 22 22 22 22 22 23 24 25 26 26 26 27 29 30 31 31 32 32 32 32 32 32 33 33 32 32 32
27 26 25 25 24 24 24 23 24 24 24 24 24 24 24 24 24 25 26 27 27 27 28 29 30 30 31 32 32 32 32 32 33 33 34 33 33 33
30 30 29 28 27 27 27 26 26 26 26 26 26 26 26 26 26 26 27 27 28 29 29 30 31 31 31 32 32 32 32 32 33 33 33 34 34 34
34 33 32 32 30 30 30 30 29 28 28 28 28 28 29 29 28 28 28 28 29 29 30 30 31 32 32 32 33 33 33 33 33 33 33 34 34 34
37 36 35 34 34 33 33 32 32 31 31 31 31 31 31 31 31 30 30 29 29 30 30 30 31 31 32 33 33 33 33 33 33 33 33 33 34 34
38 38 38 37 36 36 35 34 35 35 35 34 34 34 34 33 34 33 32 32 31 31 31 31 31 31 32 32 32 33 33 33 33 33 33 33 33 34
40 40 40 39 38 37 37 36 36 36 37 36 36 36 36 35 36 36 34 34 34 33 32 32 31 31 32 33 33 33 34 33 33 33 33 33 33 33
41 41 40 40 40 39 39 38 37 37 37 38 38 38 38 37 37 38 36 35 35 34 34 33 32 32 32 33 33 33 33 34 34 34 34 33 32 32
42 41 41 40 41 40 40 39 38 38 38 39 39 38 39 39 39 39 38 37 37 36 35 35 34 33 33 33 33 33 33 33 34 34 34 33 33 33
43 42 42 42 41 41 41 41 40 39 39 40 40 40 39 40 40 40 40 39 38 38 37 36 36 35 35 34 34 34 34 33 33 34 34 33 34 34
44 43 43 42 42 41 42 42 42 42 41 41 41 41 41 41 41 41 41 41 40 39 38 38 38 37 37 36 35 35 35 34 34 33 33 34 34 35
45 44 43 42 42 42 42 43 44 44 43 43 42 42 43 42 42 42 42 42 42 41 40 39 39 38 38 37 37 36 35 35 34 34 34 33 33 34
46 45 44 43 43 42 42 42 43 44 43 44 44 43 43 43 42 43 43 43 43 42 41 40 39 39 38 38 37 36 36 36 35 35 34 34 34 34
47 46 45 44 43 42 42 42 42 43 44 44 43 43 44 44 44 44 43 43 43 43 43 41 40 40 39 38 38 38 38 38 37 36 36 35 34 34
48 46 45 44 43 43 43 42 42 42 43 43 42 43 44 45 44 45 44 43 44 44 44 42 41 41 40 39 39 39 38 38 37 36 35 35 34 34
49 47 45 44 43 43 43 42 41 42 42 43 41 42 44 45 45 46 45 44 44 45 45 43 42 41 41 40 40 39 38 38 36 35 35 34 34 34
50 47 45 44 43 44 44 43 42 41 42 43 42 43 45 46 47 46 46 46 45 45 45 45 44 43 41 40 39 39 38 37 36 35 35 35 34 34
49 47 45 43 43 42 44 44 42 42 43 43 44 43 45 47 47 46 47 47 46 46 45 44 44 43 42 41 40 39 38 37 37 36 35 35 34 33

GEFSNE_500_meanwind_138.txt.gz
Wind_Speed
18 18 17 17 16 14 13 13 12 13 13 14 16 17 18 19 20 21 22 23 23 23 24 26 27 27 28 29 30 30 29 29 29 29 29 28 27 27
20 19 19 18 18 16 16 15 15 14 14 15 17 18 20 21 21 23 24 25 25 26 26 26 27 28 29 30 31 31 31 31 30 30 30 30 29 29
22 21 21 20 19 19 19 18 18 17 17 17 18 19 20 21 23 24 25 26 27 27 28 28 29 30 30 31 31 32 32 32 32 31 31 31 31 30
24 24 24 23 22 22 21 21 21 21 20 19 20 21 22 22 23 25 26 28 28 29 29 30 30 31 32 32 32 33 33 33 34 34 33 33 33 32
26 25 25 25 24 24 24 24 24 24 23 23 23 24 24 25 25 26 27 28 29 30 30 30 31 32 33 33 33 33 34 35 35 35 35 34 33 34
28 28 27 27 27 27 27 27 27 26 26 26 27 27 27 28 28 28 28 30 31 31 32 32 32 32 33 33 34 34 35 35 35 35 35 35 34 34
30 30 31 30 30 30 30 29 29 29 29 29 30 30 30 30 31 31 31 31 32 33 33 34 34 33 34 35 35 35 36 35 35 35 36 36 36 35
33 33 34 34 33 33 32 32 32 32 32 32 33 33 33 33 33 33 33 34 34 34 34 35 36 36 36 36 36 37 37 37 36 36 36 37 37 37
36 36 36 36 35 34 34 33 33 34 34 34 34 34 35 35 36 36 37 36 35 36 37 36 37 38 38 38 38 38 39 39 38 37 37 38 37 37
37 38 37 37 36 36 35 35 35 34 34 35 35 35 36 37 37 38 39 39 39 39 39 37 37 38 39 38 38 38 39 39 39 39 39 38 37 37
39 39 39 38 38 38 37 37 36 36 36 36 37 36 37 38 38 39 39 40 40 41 41 40 39 39 39 39 39 39 39 40 39 39 40 39 38 37
41 41 41 41 41 40 39 39 38 38 38 38 38 38 38 39 39 39 40 40 41 41 41 42 41 41 41 41 41 40 40 40 40 40 40 39 39 38
42 42 43 43 43 41 41 40 40 40 40 40 39 38 38 39 39 39 40 41 41 42 42 43 42 42 42 42 42 42 41 41 41 41 40 40 39 38
45 45 45 45 44 43 42 42 42 42 40 40 40 38 38 39 39 40 40 41 42 42 43 44 44 42 43 43 43 43 43 43 42 42 41 40 40 39
46 47 47 46 45 44 44 44 43 43 41 40 39 39 38 39 40 41 41 42 42 43 43 45 44 43 43 43 44 43 43 43 43 42 41 41 40 39
48 49 49 47 46 45 45 43 43 43 43 41 40 39 39 40 42 43 43 44 44 43 44 45 45 45 45 44 44 44 44 44 43 43 43 42 41 40
50 50 49 48 47 46 45 44 43 44 44 44 42 41 41 42 44 46 45 45 45 45 45 46 47 46 46 46 46 45 44 44 43 43 44 43 41 40
52 51 50 50 49 48 47 46 46 45 45 45 45 44 43 44 45 46 45 45 45 45 46 47 48 48 48 48 47 46 45 44 44 43 43 43 42 41
54 53 52 51 50 49 48 48 48 47 46 46 46 45 45 45 45 45 45 44 45 45 45 46 46 47 48 48 47 48 47 46 45 44 44 43 42 42
56 55 54 53 52 51 50 49 48 47 47 46 46 46 46 45 45 45 45 44 45 45 45 46 46 47 48 49 49 48 48 47 46 45 44 44 44 43
57 56 55 54 53 52 51 49 48 47 46 46 45 45 45 44 44 45 45 45 45 45 45 45 46 47 48 49 49 49 48 48 48 47 45 45 44 43
58 57 56 55 54 51 50 48 47 45 45 44 43 43 43 42 42 43 44 44 44 45 45 45 46 47 47 48 48 48 48 48 48 47 46 45 44 43
58 57 56 55 53 51 49 47 45 43 43 42 41 41 41 40 40 41 42 42 42 42 43 43 44 45 45 46 46 47 47 48 48 47 46 45 44 43